Weather in Vysokogorsk

Russia / Primorsky Krai     44°24′20″N   135°23′47″E
temp.,
°C
wind,
m/s
gust,
m/s
humid.,
%
clouds,
%
prec.,
mm/h
press.,
hPa
HPBL,
m
23 september, thu
thu2301:00+11ene2699100 1.6 1008501
04:00+11ne2599100 1.8 1009392
07:00+10ne2499100 0.4 1010274
10:00+10ne1598100 2.3 1012451
13:00+11ne2795100 1.2 1014920
16:00+11ene259099 1.4 1015801
19:00+10e1192100 0.2 101813
22:00+9nne1196100 0.8 102120
24 september, fri
fri2401:00+9nnw0094100 0.1 102214
04:00+8wnw119592 0.2 102316
07:00+9w119449 0.0 102418
10:00+13nnw137670 0.1 1025845
13:00+17nw24443 0.0 10231650
16:00+18n24413 0.0 10231714
19:00+9ne01880 0.0 102511
22:00+7nw22870 0.0 102816
25 september, sat
sat2501:00+6nw22832 0.0 102823
04:00+5nw228096 0.0 102822
07:00+6nw2172100 0.0 102817
10:00+13nw1150100 0.0 1027268
13:00+18s1136100 0.0 10251051
16:00+18se2242100 0.0 1024797
19:00+11ese1183100 0.0 102610
22:00+9nw1188100 0.0 102711
26 september, sun
sun2601:00+7nw21884 0.0 102613
04:00+7nw21810 0.0 102615
07:00+6nw22730 0.0 102618
10:00+15w01480 0.0 1024360
13:00+19sse12360 0.0 10231269
16:00+19se22440 0.0 1022796
19:00+10se11940 0.0 102310
22:00+9nw119510 0.0 102411
27 september, mon
mon2701:00+8wnw119518 0.0 102311
04:00+8nw119573 0.0 102211
07:00+8wnw119465 0.0 102211
10:00+15ssw1268100 0.0 1021383
13:00+19s2353100 0.0 10191086
16:00+18sse2355100 0.0 1018957
19:00+11ese1195100 0.0 101810
22:00+10wnw1195100 0.0 101910